Location: Krasnoyarskiy Pitomnik
(51.1333°N, 71.6167°E)
Time: 21:19:17
(UTC+00:00)

Altair - Pass Details

Date: 14 April 2024
Orbit: 1501 x 1682 km, 47.2° (Epoch: 19 May)

Event Time Altitude Azimuth Distance (km) Brightness Sun altitude
Rises 14:00:26 0° 191° (S) 4,902 10.1 0.4°
Reaches altitude 10° 14:04:33 10° 177° (S) 3,899 9.5 -0.3°
Maximum altitude 14:11:31 22° 132° (SE) 3,014 8.6 -1.3°
Drops below altitude 10° 14:18:21 10° 87° (E) 3,818 9.0 -2.3°
Sets 14:22:17 0° 73° (ENE) 4,776 9.6 -2.9°
